| time (UTC) | temp F | wind direction | speed MPH | gust MPH | rain 1hr in | rain 24hr in | rain mn in | humidity % | barometer mb |
| 20260904031600 | 70 | 70 | 4.0 | 8.0 | 0.00 | 0.00 | 0.00 | 49 | 1022.7 |
| 20260904031042 | 70 | 67 | 4.0 | 8.0 | 0.00 | 0.00 | 0.00 | 48 | 1022.7 |
| 20260904030542 | 70 | 46 | 2.0 | 8.0 | 0.00 | 0.00 | 0.00 | 47 | 1022.7 |
| 20260904030103 | 71 | 12 | 3.0 | 9.0 | 0.00 | 0.00 | 0.00 | 47 | 1022.7 |
| 20260904025542 | 71 | 351 | 5.0 | 9.0 | 0.00 | 0.00 | 0.00 | 46 | 1022.6 |
| 20260904025042 | 71 | 15 | 3.0 | 11.0 | 0.00 | 0.00 | 0.00 | 46 | 1022.5 |
| 20260904024606 | 72 | 340 | 4.0 | 11.0 | 0.00 | 0.00 | 0.00 | 45 | 1022.5 |
| 20260904024044 | 73 | 360 | 5.0 | 14.0 | 0.00 | 0.00 | 0.00 | 45 | 1022.3 |
| 20260904023542 | 73 | 318 | 7.0 | 18.0 | 0.00 | 0.00 | 0.00 | 43 | 1022.4 |
| 20260904023101 | 73 | 301 | 9.0 | 18.0 | 0.00 | 0.00 | 0.00 | 42 | 1022.2 |
| 20260904022541 | 74 | 314 | 10.0 | 18.0 | 0.00 | 0.00 | 0.00 | 41 | 1022.1 |
| 20260904022041 | 74 | 285 | 4.0 | 10.0 | 0.00 | 0.00 | 0.00 | 41 | 1021.9 |
| 20260904021600 | 74 | 244 | 5.0 | 10.0 | 0.00 | 0.00 | 0.00 | 41 | 1021.9 |
| 20260904021042 | 75 | 286 | 5.0 | 10.0 | 0.00 | 0.00 | 0.00 | 41 | 1021.8 |
| 20260904020542 | 75 | 284 | 5.0 | 12.0 | 0.00 | 0.00 | 0.00 | 41 | 1021.8 |
| 20260904020056 | 76 | 285 | 6.0 | 17.0 | 0.00 | 0.00 | 0.00 | 40 | 1021.7 |
| 20260904015541 | 76 | 267 | 8.0 | 17.0 | 0.00 | 0.00 | 0.00 | 39 | 1021.7 |
| 20260904015042 | 77 | 263 | 7.0 | 16.0 | 0.00 | 0.00 | 0.00 | 38 | 1021.7 |
| 20260904014604 | 77 | 256 | 7.0 | 16.0 | 0.00 | 0.00 | 0.00 | 36 | 1021.5 |
| 20260904014042 | 78 | 222 | 4.0 | 11.0 | 0.00 | 0.00 | 0.00 | 35 | 1021.3 |
| 20260904013539 | 78 | 240 | 4.0 | 11.0 | 0.00 | 0.00 | 0.00 | 34 | 1021.3 |
| 20260904013100 | 78 | 237 | 3.0 | 9.0 | 0.00 | 0.00 | 0.00 | 34 | 1021.3 |
| 20260904012544 | 78 | 219 | 3.0 | 9.0 | 0.00 | 0.00 | 0.00 | 34 | 1021.3 |
| 20260904012043 | 79 | 209 | 4.0 | 8.0 | 0.00 | 0.00 | 0.00 | 34 | 1021.1 |
| 20260904011553 | 79 | 242 | 4.0 | 8.0 | 0.00 | 0.00 | 0.00 | 33 | 1021.2 |
| 20260904011042 | 79 | 238 | 3.0 | 7.0 | 0.00 | 0.00 | 0.00 | 33 | 1021.1 |
| 20260904010542 | 79 | 201 | 3.0 | 6.0 | 0.00 | 0.00 | 0.00 | 33 | 1021.1 |
| 20260904010049 | 79 | 233 | 3.0 | 6.0 | 0.00 | 0.00 | 0.00 | 32 | 1021.1 |
| 20260904005541 | 80 | 202 | 3.0 | 9.0 | 0.00 | 0.00 | 0.00 | 32 | 1021.1 |
| 20260904005041 | 80 | 207 | 3.0 | 10.0 | 0.00 | 0.00 | 0.00 | 32 | 1021.1 |
| 20260904004554 | 80 | 218 | 4.0 | 11.0 | 0.00 | 0.00 | 0.00 | 31 | 1021.1 |
| 20260904004042 | 81 | 227 | 5.0 | 11.0 | 0.00 | 0.00 | 0.00 | 31 | 1021.0 |
| 20260904003542 | 81 | 225 | 4.0 | 10.0 | 0.00 | 0.00 | 0.00 | 31 | 1021.1 |
| 20260904003052 | 82 | 196 | 5.0 | 9.0 | 0.00 | 0.00 | 0.00 | 30 | 1021.1 |
| 20260904002542 | 83 | 217 | 3.0 | 10.0 | 0.00 | 0.00 | 0.00 | 29 | 1021.1 |
| 20260904002043 | 83 | 197 | 4.0 | 11.0 | 0.00 | 0.00 | 0.00 | 29 | 1021.1 |
| 20260904001603 | 84 | 208 | 4.0 | 13.0 | 0.00 | 0.00 | 0.00 | 28 | 1021.1 |
| 20260904001042 | 85 | 240 | 5.0 | 13.0 | 0.00 | 0.00 | 0.00 | 28 | 1021.1 |
| 20260904000542 | 85 | 185 | 6.0 | 13.0 | 0.00 | 0.00 | 0.00 | 28 | 1021.0 |
| 20260904000115 | 86 | 202 | 6.0 | 15.0 | 0.00 | 0.00 | 0.00 | 28 | 1021.0 |
| 20260903235541 | 86 | 153 | 7.0 | 15.0 | 0.00 | 0.00 | 0.00 | 27 | 1021.0 |
| 20260903235042 | 86 | 199 | 6.0 | 14.0 | 0.00 | 0.00 | 0.00 | 27 | 1021.0 |
| 20260903234556 | 87 | 196 | 5.0 | 12.0 | 0.00 | 0.00 | 0.00 | 27 | 1021.0 |
| 20260903234116 | 87 | 204 | 6.0 | 12.0 | 0.00 | 0.00 | 0.00 | 27 | 1021.0 |
| 20260903233541 | 87 | 200 | 7.0 | 12.0 | 0.00 | 0.00 | 0.00 | 27 | 1020.9 |
| 20260903233117 | 87 | 211 | 5.0 | 14.0 | 0.00 | 0.00 | 0.00 | 27 | 1020.9 |
| 20260903232541 | 87 | 178 | 5.0 | 14.0 | 0.00 | 0.00 | 0.00 | 27 | 1020.9 |
| 20260903232042 | 86 | 194 | 3.0 | 12.0 | 0.00 | 0.00 | 0.00 | 27 | 1021.0 |
| 20260903231550 | 86 | 251 | 6.0 | 14.0 | 0.00 | 0.00 | 0.00 | 27 | 1021.1 |
| 20260903231041 | 86 | 225 | 7.0 | 14.0 | 0.00 | 0.00 | 0.00 | 27 | 1021.1 |
| 20260903230542 | 85 | 217 | 8.0 | 14.0 | 0.00 | 0.00 | 0.00 | 28 | 1021.1 |
| 20260903230107 | 85 | 242 | 8.0 | 14.0 | 0.00 | 0.00 | 0.00 | 28 | 1021.1 |
| 20260903225541 | 85 | 225 | 5.0 | 12.0 | 0.00 | 0.00 | 0.00 | 29 | 1021.1 |
| 20260903225041 | 84 | 248 | 6.0 | 13.0 | 0.00 | 0.00 | 0.00 | 29 | 1021.3 |
| 20260903224628 | 85 | 206 | 6.0 | 13.0 | 0.00 | 0.00 | 0.00 | 28 | 1021.3 |
| 20260903224042 | 85 | 185 | 6.0 | 14.0 | 0.00 | 0.00 | 0.00 | 28 | 1021.2 |
| 20260903223543 | 86 | 198 | 6.0 | 15.0 | 0.00 | 0.00 | 0.00 | 28 | 1021.3 |
| 20260903223133 | 87 | 182 | 7.0 | 15.0 | 0.00 | 0.00 | 0.00 | 27 | 1021.3 |
| 20260903222542 | 87 | 248 | 5.0 | 12.0 | 0.00 | 0.00 | 0.00 | 26 | 1021.4 |
| 20260903222042 | 87 | 161 | 6.0 | 11.0 | 0.00 | 0.00 | 0.00 | 26 | 1021.4 |
| 20260903221556 | 87 | 161 | 5.0 | 12.0 | 0.00 | 0.00 | 0.00 | 28 | 1021.4 |
| 20260903221044 | 86 | 120 | 5.0 | 12.0 | 0.00 | 0.00 | 0.00 | 27 | 1021.4 |
| 20260903220542 | 87 | 211 | 4.0 | 13.0 | 0.00 | 0.00 | 0.00 | 26 | 1021.5 |
| 20260903220053 | 88 | 225 | 9.0 | 13.0 | 0.00 | 0.00 | 0.00 | 25 | 1021.5 |
| 20260903215542 | 89 | 175 | 4.0 | 13.0 | 0.00 | 0.00 | 0.00 | 24 | 1021.6 |
| 20260903215043 | 90 | 187 | 3.0 | 13.0 | 0.00 | 0.00 | 0.00 | 25 | 1021.5 |
| 20260903214556 | 90 | 182 | 5.0 | 13.0 | 0.00 | 0.00 | 0.00 | 25 | 1021.6 |
| 20260903214042 | 89 | 320 | 3.0 | 12.0 | 0.00 | 0.00 | 0.00 | 25 | 1021.5 |
| 20260903213542 | 89 | 270 | 4.0 | 12.0 | 0.00 | 0.00 | 0.00 | 25 | 1021.7 |
| 20260903213108 | 88 | 189 | 5.0 | 13.0 | 0.00 | 0.00 | 0.00 | 25 | 1021.7 |
| 20260903212542 | 88 | 265 | 6.0 | 13.0 | 0.00 | 0.00 | 0.00 | 25 | 1021.8 |
| 20260903212042 | 89 | 297 | 6.0 | 12.0 | 0.00 | 0.00 | 0.00 | 24 | 1021.9 |
| 20260903211553 | 90 | 304 | 4.0 | 12.0 | 0.00 | 0.00 | 0.00 | 24 | 1021.9 |
| 20260903211042 | 90 | 153 | 6.0 | 11.0 | 0.00 | 0.00 | 0.00 | 24 | 1021.9 |
| 20260903210543 | 91 | 146 | 6.0 | 12.0 | 0.00 | 0.00 | 0.00 | 23 | 1022.1 |
| 20260903210114 | 91 | 237 | 4.0 | 15.0 | 0.00 | 0.00 | 0.00 | 23 | 1022.1 |
| 20260903205544 | 90 | 279 | 7.0 | 15.0 | 0.00 | 0.00 | 0.00 | 24 | 1022.2 |
| 20260903205042 | 89 | 198 | 6.0 | 15.0 | 0.00 | 0.00 | 0.00 | 25 | 1022.3 |
| 20260903204556 | 88 | 251 | 2.0 | 11.0 | 0.00 | 0.00 | 0.00 | 25 | 1022.3 |
| 20260903204045 | 88 | 342 | 7.0 | 12.0 | 0.00 | 0.00 | 0.00 | 25 | 1022.3 |
| 20260903203542 | 88 | 280 | 4.0 | 13.0 | 0.00 | 0.00 | 0.00 | 25 | 1022.4 |
| 20260903203055 | 88 | 184 | 8.0 | 15.0 | 0.00 | 0.00 | 0.00 | 25 | 1022.4 |
| 20260903202628 | 88 | 265 | 7.0 | 15.0 | 0.00 | 0.00 | 0.00 | 25 | 1022.4 |
| 20260903202042 | 88 | 292 | 8.0 | 14.0 | 0.00 | 0.00 | 0.00 | 25 | 1022.5 |
| 20260903201554 | 88 | 244 | 8.0 | 14.0 | 0.00 | 0.00 | 0.00 | 25 | 1022.5 |
| 20260903201042 | 87 | 302 | 5.0 | 13.0 | 0.00 | 0.00 | 0.00 | 27 | 1022.6 |
| 20260903200542 | 87 | 316 | 6.0 | 14.0 | 0.00 | 0.00 | 0.00 | 26 | 1022.7 |
| 20260903200051 | 87 | 306 | 6.0 | 14.0 | 0.00 | 0.00 | 0.00 | 26 | 1022.8 |
| 20260903195542 | 87 | 253 | 7.0 | 14.0 | 0.00 | 0.00 | 0.00 | 26 | 1022.9 |
| 20260903195042 | 87 | 296 | 5.0 | 14.0 | 0.00 | 0.00 | 0.00 | 26 | 1022.9 |
| 20260903194600 | 88 | 144 | 3.0 | 12.0 | 0.00 | 0.00 | 0.00 | 25 | 1023.0 |
| 20260903194041 | 88 | 159 | 4.0 | 13.0 | 0.00 | 0.00 | 0.00 | 25 | 1023.1 |
| 20260903193542 | 88 | 259 | 7.0 | 13.0 | 0.00 | 0.00 | 0.00 | 25 | 1023.2 |
| 20260903193059 | 88 | 254 | 6.0 | 12.0 | 0.00 | 0.00 | 0.00 | 26 | 1023.2 |
| 20260903192542 | 87 | 217 | 4.0 | 10.0 | 0.00 | 0.00 | 0.00 | 27 | 1023.2 |
| 20260903192042 | 87 | 56 | 3.0 | 9.0 | 0.00 | 0.00 | 0.00 | 26 | 1023.2 |
| 20260903191552 | 88 | 252 | 2.0 | 10.0 | 0.00 | 0.00 | 0.00 | 26 | 1023.4 |
| 20260903191042 | 88 | 270 | 4.0 | 10.0 | 0.00 | 0.00 | 0.00 | 26 | 1023.4 |
| 20260903190543 | 88 | 274 | 2.0 | 12.0 | 0.00 | 0.00 | 0.00 | 26 | 1023.5 |
| 20260903190054 | 88 | 277 | 4.0 | 12.0 | 0.00 | 0.00 | 0.00 | 26 | 1023.7 |
| 20260903185542 | 89 | 275 | 3.0 | 9.0 | 0.00 | 0.00 | 0.00 | 26 | 1023.7 |
| 20260903185042 | 88 | 298 | 2.0 | 9.0 | 0.00 | 0.00 | 0.00 | 27 | 1023.8 |
| 20260903184553 | 87 | 164 | 3.0 | 7.0 | 0.00 | 0.00 | 0.00 | 27 | 1024.0 |
| 20260903184042 | 86 | 265 | 2.0 | 13.0 | 0.00 | 0.00 | 0.00 | 27 | 1024.1 |
| 20260903183542 | 86 | 211 | 4.0 | 13.0 | 0.00 | 0.00 | 0.00 | 27 | 1024.2 |
| 20260903183055 | 87 | 235 | 4.0 | 13.0 | 0.00 | 0.00 | 0.00 | 27 | 1024.2 |
| 20260903182543 | 86 | 0 | 2.0 | 9.0 | 0.00 | 0.00 | 0.00 | 27 | 1024.3 |
| 20260903182042 | 85 | 193 | 3.0 | 11.0 | 0.00 | 0.00 | 0.00 | 28 | 1024.3 |
| 20260903181555 | 85 | 173 | 4.0 | 11.0 | 0.00 | 0.00 | 0.00 | 28 | 1024.2 |
| 20260903181042 | 84 | 185 | 5.0 | 11.0 | 0.00 | 0.00 | 0.00 | 29 | 1024.4 |
| 20260903180543 | 83 | 255 | 2.0 | 8.0 | 0.00 | 0.00 | 0.00 | 30 | 1024.5 |
| 20260903180050 | 82 | 349 | 3.0 | 8.0 | 0.00 | 0.00 | 0.00 | 31 | 1024.5 |
| 20260903175542 | 81 | 246 | 2.0 | 6.0 | 0.00 | 0.00 | 0.00 | 31 | 1024.5 |
| 20260903175042 | 80 | 303 | 2.0 | 10.0 | 0.00 | 0.00 | 0.00 | 32 | 1024.7 |
| 20260903174555 | 80 | 313 | 4.0 | 13.0 | 0.00 | 0.00 | 0.00 | 32 | 1024.6 |
| 20260903174041 | 80 | 329 | 5.0 | 13.0 | 0.00 | 0.00 | 0.00 | 32 | 1024.7 |
| 20260903173541 | 79 | 326 | 1.0 | 7.0 | 0.00 | 0.00 | 0.00 | 33 | 1024.7 |
| 20260903173056 | 78 | 350 | 2.0 | 11.0 | 0.00 | 0.00 | 0.00 | 33 | 1024.7 |
| 20260903172542 | 78 | 0 | 2.0 | 14.0 | 0.00 | 0.00 | 0.00 | 34 | 1024.7 |
| 20260903172042 | 78 | 331 | 5.0 | 14.0 | 0.00 | 0.00 | 0.00 | 34 | 1024.7 |
| 20260903171601 | 78 | 273 | 3.0 | 11.0 | 0.00 | 0.00 | 0.00 | 35 | 1024.6 |
| 20260903171042 | 77 | 302 | 6.0 | 12.0 | 0.00 | 0.00 | 0.00 | 35 | 1024.7 |
| 20260903170538 | 77 | 339 | 2.0 | 12.0 | 0.00 | 0.00 | 0.00 | 36 | 1024.6 |
| 20260903170106 | 77 | 9 | 7.0 | 12.0 | 0.00 | 0.00 | 0.00 | 35 | 1024.6 |
| 20260903165541 | 76 | 321 | 3.0 | 12.0 | 0.00 | 0.00 | 0.00 | 38 | 1024.6 |
| 20260903165042 | 76 | 49 | 6.0 | 12.0 | 0.00 | 0.00 | 0.00 | 37 | 1024.7 |
| 20260903164600 | 75 | 30 | 6.0 | 12.0 | 0.00 | 0.00 | 0.00 | 39 | 1024.6 |
| 20260903164042 | 75 | 35 | 6.0 | 12.0 | 0.00 | 0.00 | 0.00 | 40 | 1024.7 |
| 20260903163545 | 75 | 5 | 7.0 | 12.0 | 0.00 | 0.00 | 0.00 | 39 | 1024.7 |
| 20260903163055 | 75 | 9 | 4.0 | 12.0 | 0.00 | 0.00 | 0.00 | 41 | 1024.8 |
| 20260903162542 | 75 | 330 | 5.0 | 14.0 | 0.00 | 0.00 | 0.00 | 40 | 1024.6 |
| 20260903162041 | 75 | 37 | 6.0 | 14.0 | 0.00 | 0.00 | 0.00 | 40 | 1024.6 |
| 20260903161551 | 74 | 331 | 6.0 | 14.0 | 0.00 | 0.00 | 0.00 | 41 | 1024.6 |
| 20260903161041 | 74 | 17 | 6.0 | 13.0 | 0.00 | 0.00 | 0.00 | 41 | 1024.6 |
| 20260903160541 | 74 | 329 | 7.0 | 12.0 | 0.00 | 0.00 | 0.00 | 42 | 1024.6 |
| 20260903160059 | 74 | 31 | 5.0 | 14.0 | 0.00 | 0.00 | 0.00 | 41 | 1024.6 |
| 20260903155541 | 73 | 342 | 6.0 | 14.0 | 0.00 | 0.00 | 0.00 | 42 | 1024.6 |
| 20260903155042 | 73 | 11 | 8.0 | 12.0 | 0.00 | 0.00 | 0.00 | 42 | 1024.5 |
| 20260903154557 | 72 | 342 | 5.0 | 14.0 | 0.00 | 0.00 | 0.00 | 44 | 1024.4 |
| 20260903154047 | 72 | 23 | 8.0 | 18.0 | 0.00 | 0.00 | 0.00 | 43 | 1024.5 |
| 20260903153543 | 72 | 34 | 8.0 | 18.0 | 0.00 | 0.00 | 0.00 | 43 | 1024.4 |
| 20260903153054 | 72 | 42 | 10.0 | 17.0 | 0.00 | 0.00 | 0.00 | 43 | 1024.6 |
| 20260903152541 | 72 | 352 | 8.0 | 14.0 | 0.00 | 0.00 | 0.00 | 43 | 1024.4 |
| 20260903152042 | 72 | 351 | 8.0 | 14.0 | 0.00 | 0.00 | 0.00 | 44 | 1024.4 |
| 20260903151550 | 71 | 347 | 6.0 | 13.0 | 0.00 | 0.00 | 0.00 | 43 | 1024.4 |
| 20260903151046 | 71 | 30 | 9.0 | 13.0 | 0.00 | 0.00 | 0.00 | 44 | 1024.4 |
| 20260903150545 | 71 | 40 | 8.0 | 13.0 | 0.00 | 0.00 | 0.00 | 44 | 1024.4 |
| 20260903150104 | 70 | 334 | 6.0 | 12.0 | 0.00 | 0.00 | 0.00 | 46 | 1024.3 |
| 20260903145541 | 70 | 67 | 6.0 | 10.0 | 0.00 | 0.00 | 0.00 | 46 | 1024.4 |
| 20260903145042 | 69 | 22 | 6.0 | 10.0 | 0.00 | 0.00 | 0.00 | 46 | 1024.3 |
| 20260903144553 | 69 | 301 | 3.0 | 10.0 | 0.00 | 0.00 | 0.00 | 46 | 1024.4 |
| 20260903144042 | 69 | 348 | 6.0 | 11.0 | 0.00 | 0.00 | 0.00 | 46 | 1024.4 |
| 20260903143542 | 69 | 308 | 6.0 | 11.0 | 0.00 | 0.00 | 0.00 | 46 | 1024.4 |
| 20260903143051 | 69 | 352 | 6.0 | 11.0 | 0.00 | 0.00 | 0.00 | 47 | 1024.4 |
| 20260903142541 | 68 | 24 | 4.0 | 11.0 | 0.00 | 0.00 | 0.00 | 48 | 1024.2 |
| 20260903142052 | 68 | 15 | 6.0 | 11.0 | 0.00 | 0.00 | 0.00 | 48 | 1024.2 |
| 20260903141549 | 67 | 28 | 5.0 | 9.0 | 0.00 | 0.00 | 0.00 | 49 | 1024.2 |
| 20260903141042 | 66 | 44 | 3.0 | 8.0 | 0.00 | 0.00 | 0.00 | 49 | 1024.1 |
| 20260903140542 | 66 | 9 | 3.0 | 8.0 | 0.00 | 0.00 | 0.00 | 50 | 1024.1 |
| 20260903135543 | 65 | 349 | 4.0 | 6.0 | 0.00 | 0.00 | 0.00 | 50 | 1024.1 |
| 20260903135043 | 64 | 360 | 3.0 | 6.0 | 0.00 | 0.00 | 0.00 | 50 | 1024.0 |
| 20260903134552 | 64 | 332 | 3.0 | 9.0 | 0.00 | 0.00 | 0.00 | 50 | 1024.1 |
| 20260903134042 | 64 | 318 | 4.0 | 9.0 | 0.00 | 0.00 | 0.00 | 52 | 1024.0 |
| 20260903133542 | 63 | 24 | 5.0 | 9.0 | 0.00 | 0.00 | 0.00 | 52 | 1024.0 |
| 20260903133053 | 63 | 27 | 3.0 | 6.0 | 0.00 | 0.00 | 0.00 | 52 | 1024.0 |
| 20260903132542 | 63 | 33 | 3.0 | 8.0 | 0.00 | 0.00 | 0.00 | 52 | 1024.0 |
| 20260903132044 | 62 | 28 | 3.0 | 8.0 | 0.00 | 0.00 | 0.00 | 52 | 1024.0 |
| 20260903131606 | 62 | 38 | 4.0 | 8.0 | 0.00 | 0.00 | 0.00 | 52 | 1023.9 |
| 20260903131042 | 62 | 326 | 4.0 | 8.0 | 0.00 | 0.00 | 0.00 | 52 | 1023.9 |
| 20260903130543 | 62 | 36 | 5.0 | 8.0 | 0.00 | 0.00 | 0.00 | 52 | 1023.8 |
| 20260903130057 | 62 | 44 | 4.0 | 8.0 | 0.00 | 0.00 | 0.00 | 52 | 1023.7 |
| 20260903125542 | 61 | 42 | 4.0 | 8.0 | 0.00 | 0.00 | 0.00 | 52 | 1023.5 |
| 20260903125043 | 62 | 33 | 4.0 | 7.0 | 0.00 | 0.00 | 0.00 | 51 | 1023.5 |
| 20260903124555 | 62 | 345 | 3.0 | 7.0 | 0.00 | 0.00 | 0.00 | 50 | 1023.6 |
| 20260903124042 | 62 | 17 | 4.0 | 7.0 | 0.00 | 0.00 | 0.00 | 51 | 1023.7 |
| 20260903123542 | 62 | 51 | 4.0 | 9.0 | 0.00 | 0.00 | 0.00 | 51 | 1023.5 |
| 20260903123056 | 62 | 36 | 5.0 | 9.0 | 0.00 | 0.00 | 0.00 | 51 | 1023.5 |
| 20260903122543 | 62 | 51 | 4.0 | 7.0 | 0.00 | 0.00 | 0.00 | 50 | 1023.4 |
| 20260903122043 | 61 | 52 | 4.0 | 9.0 | 0.00 | 0.00 | 0.00 | 50 | 1023.4 |
| 20260903121623 | 61 | 50 | 5.0 | 9.0 | 0.00 | 0.00 | 0.00 | 50 | 1023.2 |
| 20260903121043 | 61 | 46 | 5.0 | 8.0 | 0.00 | 0.00 | 0.00 | 49 | 1023.2 |
| 20260903120545 | 61 | 43 | 3.0 | 7.0 | 0.00 | 0.00 | 0.00 | 48 | 1023.2 |
| 20260903120055 | 61 | 24 | 4.0 | 7.0 | 0.00 | 0.00 | 0.00 | 48 | 1023.1 |
| 20260903115545 | 61 | 17 | 3.0 | 7.0 | 0.00 | 0.00 | 0.00 | 48 | 1023.1 |
| 20260903115043 | 61 | 19 | 4.0 | 5.0 | 0.00 | 0.00 | 0.00 | 48 | 1023.1 |
| 20260903114552 | 61 | 5 | 4.0 | 5.0 | 0.00 | 0.00 | 0.00 | 48 | 1023.2 |
| 20260903114042 | 61 | 27 | 3.0 | 5.0 | 0.00 | 0.00 | 0.00 | 47 | 1023.1 |
| 20260903113542 | 61 | 5 | 3.0 | 5.0 | 0.00 | 0.00 | 0.00 | 47 | 1023.2 |
| 20260903113051 | 61 | 5 | 4.0 | 5.0 | 0.00 | 0.00 | 0.00 | 47 | 1023.2 |
| 20260903112543 | 61 | 5 | 3.0 | 4.0 | 0.00 | 0.00 | 0.00 | 46 | 1023.1 |
| 20260903112043 | 61 | 5 | 2.0 | 4.0 | 0.00 | 0.00 | 0.00 | 46 | 1023.1 |
| 20260903111551 | 61 | 5 | 3.0 | 5.0 | 0.00 | 0.00 | 0.00 | 46 | 1023.1 |
| 20260903111042 | 61 | 5 | 3.0 | 5.0 | 0.00 | 0.00 | 0.00 | 46 | 1023.1 |
| 20260903110547 | 62 | 5 | 3.0 | 5.0 | 0.00 | 0.00 | 0.00 | 45 | 1023.0 |
| 20260903110058 | 62 | 5 | 3.0 | 5.0 | 0.00 | 0.00 | 0.00 | 45 | 1023.0 |
| 20260903105543 | 62 | 5 | 3.0 | 6.0 | 0.00 | 0.00 | 0.00 | 45 | 1022.9 |
| 20260903105043 | 63 | 11 | 4.0 | 6.0 | 0.00 | 0.00 | 0.00 | 44 | 1022.9 |
| 20260903104605 | 63 | 34 | 2.0 | 4.0 | 0.00 | 0.00 | 0.00 | 44 | 1022.9 |
| 20260903104042 | 64 | 34 | 2.0 | 5.0 | 0.00 | 0.00 | 0.00 | 43 | 1022.9 |
| 20260903103542 | 64 | 34 | 3.0 | 6.0 | 0.00 | 0.00 | 0.00 | 43 | 1022.9 |
| 20260903103053 | 64 | 42 | 3.0 | 6.0 | 0.00 | 0.00 | 0.00 | 42 | 1022.9 |
| 20260903102545 | 64 | 49 | 3.0 | 6.0 | 0.00 | 0.00 | 0.00 | 42 | 1022.8 |
| 20260903102042 | 64 | 44 | 3.0 | 6.0 | 0.00 | 0.00 | 0.00 | 42 | 1022.7 |
| 20260903101602 | 64 | 39 | 3.0 | 6.0 | 0.00 | 0.00 | 0.00 | 42 | 1022.7 |
| 20260903101042 | 64 | 32 | 4.0 | 6.0 | 0.00 | 0.00 | 0.00 | 41 | 1022.6 |
| 20260903100542 | 64 | 27 | 3.0 | 7.0 | 0.00 | 0.00 | 0.00 | 41 | 1022.7 |
| 20260903100059 | 64 | 360 | 2.0 | 7.0 | 0.00 | 0.00 | 0.00 | 41 | 1022.7 |
| 20260903095543 | 64 | 15 | 4.0 | 7.0 | 0.00 | 0.00 | 0.00 | 41 | 1022.8 |
| 20260903095045 | 64 | 49 | 3.0 | 7.0 | 0.00 | 0.00 | 0.00 | 41 | 1022.7 |
| 20260903094611 | 64 | 43 | 4.0 | 9.0 | 0.00 | 0.00 | 0.00 | 41 | 1022.7 |
| 20260903094044 | 64 | 51 | 5.0 | 9.0 | 0.00 | 0.00 | 0.00 | 41 | 1022.6 |
| 20260903093542 | 64 | 55 | 5.0 | 9.0 | 0.00 | 0.00 | 0.00 | 41 | 1022.6 |
| 20260903093106 | 64 | 51 | 5.0 | 8.0 | 0.00 | 0.00 | 0.00 | 41 | 1022.6 |
| 20260903092542 | 64 | 42 | 5.0 | 7.0 | 0.00 | 0.00 | 0.00 | 41 | 1022.7 |
| 20260903092043 | 64 | 22 | 3.0 | 6.0 | 0.00 | 0.00 | 0.00 | 41 | 1022.7 |
| 20260903091558 | 64 | 22 | 3.0 | 9.0 | 0.00 | 0.00 | 0.00 | 40 | 1022.7 |
| 20260903091043 | 64 | 37 | 5.0 | 9.0 | 0.00 | 0.00 | 0.00 | 40 | 1022.5 |
| 20260903090542 | 64 | 38 | 5.0 | 8.0 | 0.00 | 0.00 | 0.00 | 41 | 1022.6 |
| 20260903090109 | 63 | 35 | 3.0 | 5.0 | 0.00 | 0.00 | 0.00 | 41 | 1022.7 |
| 20260903085547 | 63 | 48 | 3.0 | 5.0 | 0.00 | 0.00 | 0.00 | 41 | 1022.7 |
| 20260903085042 | 63 | 325 | 3.0 | 5.0 | 0.00 | 0.00 | 0.00 | 42 | 1022.7 |
| 20260903084556 | 63 | 325 | 2.0 | 5.0 | 0.00 | 0.00 | 0.00 | 42 | 1022.8 |
| 20260903084042 | 63 | 325 | 3.0 | 6.0 | 0.00 | 0.00 | 0.00 | 42 | 1022.9 |
| 20260903083542 | 64 | 325 | 3.0 | 6.0 | 0.00 | 0.00 | 0.00 | 43 | 1022.9 |
| 20260903083059 | 63 | 325 | 4.0 | 8.0 | 0.00 | 0.00 | 0.00 | 42 | 1022.9 |
| 20260903082542 | 63 | 325 | 4.0 | 8.0 | 0.00 | 0.00 | 0.00 | 42 | 1022.9 |
| 20260903082042 | 63 | 335 | 3.0 | 5.0 | 0.00 | 0.00 | 0.00 | 42 | 1023.0 |
| 20260903081555 | 62 | 338 | 3.0 | 5.0 | 0.00 | 0.00 | 0.00 | 42 | 1022.9 |
| 20260903081042 | 63 | 69 | 1.0 | 5.0 | 0.00 | 0.00 | 0.00 | 44 | 1022.9 |
| 20260903080542 | 63 | 69 | 4.0 | 5.0 | 0.00 | 0.00 | 0.00 | 43 | 1022.9 |
| 20260903080054 | 63 | 80 | 2.0 | 5.0 | 0.00 | 0.00 | 0.00 | 43 | 1022.9 |
| 20260903075543 | 63 | 80 | 1.0 | 5.0 | 0.00 | 0.00 | 0.00 | 43 | 1022.9 |
| 20260903075042 | 63 | 80 | 3.0 | 7.0 | 0.00 | 0.00 | 0.00 | 43 | 1022.9 |
| 20260903074552 | 63 | 84 | 4.0 | 7.0 | 0.00 | 0.00 | 0.00 | 43 | 1022.8 |
| 20260903074042 | 63 | 80 | 4.0 | 7.0 | 0.00 | 0.00 | 0.00 | 42 | 1022.8 |
| 20260903073543 | 63 | 80 | 3.0 | 7.0 | 0.00 | 0.00 | 0.00 | 42 | 1022.9 |
| 20260903073057 | 63 | 66 | 4.0 | 7.0 | 0.00 | 0.00 | 0.00 | 42 | 1022.8 |
| 20260903072543 | 63 | 60 | 4.0 | 7.0 | 0.00 | 0.00 | 0.00 | 43 | 1022.9 |
| 20260903072042 | 63 | 65 | 4.0 | 7.0 | 0.00 | 0.00 | 0.00 | 44 | 1022.9 |
| 20260903071557 | 63 | 70 | 4.0 | 8.0 | 0.00 | 0.00 | 0.00 | 44 | 1022.9 |
| 20260903071045 | 63 | 71 | 5.0 | 8.0 | 0.00 | 0.00 | 0.00 | 44 | 1022.9 |
| 20260903070542 | 63 | 69 | 5.0 | 8.0 | 0.00 | 0.00 | 0.00 | 44 | 1023.0 |
| 20260903070059 | 62 | 81 | 5.0 | 8.0 | 0.00 | 0.00 | 0.00 | 43 | 1023.0 |
| 20260903065545 | 62 | 80 | 4.0 | 7.0 | 0.00 | 0.00 | 0.00 | 43 | 1022.9 |
| 20260903065042 | 62 | 77 | 4.0 | 7.0 | 0.00 | 0.00 | 0.00 | 43 | 1022.9 |
| 20260903064559 | 62 | 77 | 5.0 | 7.0 | 0.00 | 0.00 | 0.00 | 43 | 1022.8 |
| 20260903064042 | 63 | 82 | 5.0 | 7.0 | 0.00 | 0.00 | 0.00 | 43 | 1022.8 |
| 20260903063544 | 63 | 90 | 4.0 | 6.0 | 0.00 | 0.00 | 0.00 | 43 | 1022.9 |
| 20260903063052 | 63 | 90 | 3.0 | 6.0 | 0.00 | 0.00 | 0.00 | 43 | 1023.0 |
| 20260903062543 | 63 | 88 | 2.0 | 4.0 | 0.00 | 0.00 | 0.00 | 43 | 1023.0 |
| 20260903062043 | 63 | 88 | 3.0 | 4.0 | 0.00 | 0.00 | 0.00 | 43 | 1023.1 |
| 20260903061552 | 63 | 88 | 3.0 | 4.0 | 0.00 | 0.00 | 0.00 | 43 | 1023.1 |
| 20260903061043 | 63 | 88 | 2.0 | 4.0 | 0.00 | 0.00 | 0.00 | 43 | 1023.1 |
| 20260903060543 | 63 | 88 | 2.0 | 4.0 | 0.00 | 0.00 | 0.00 | 44 | 1023.1 |
| 20260903060120 | 64 | 81 | 2.0 | 4.0 | 0.00 | 0.00 | 0.00 | 43 | 1023.1 |
| 20260903055543 | 64 | 81 | 2.0 | 5.0 | 0.00 | 0.00 | 0.00 | 43 | 1023.2 |
| 20260903055042 | 64 | 81 | 3.0 | 5.0 | 0.00 | 0.00 | 0.00 | 43 | 1023.1 |
| 20260903054602 | 64 | 81 | 2.0 | 4.0 | 0.00 | 0.00 | 0.00 | 43 | 1023.1 |
| 20260903054046 | 65 | 81 | 2.0 | 4.0 | 0.00 | 0.00 | 0.00 | 43 | 1023.1 |
| 20260903053542 | 65 | 81 | 2.0 | 4.0 | 0.00 | 0.00 | 0.00 | 43 | 1023.1 |
| 20260903053104 | 65 | 81 | 2.0 | 4.0 | 0.00 | 0.00 | 0.00 | 45 | 1023.1 |
| 20260903052543 | 65 | 81 | 2.0 | 4.0 | 0.00 | 0.00 | 0.00 | 41 | 1023.0 |
| 20260903052044 | 65 | 81 | 3.0 | 5.0 | 0.00 | 0.00 | 0.00 | 40 | 1022.9 |
| 20260903051555 | 65 | 81 | 3.0 | 5.0 | 0.00 | 0.00 | 0.00 | 40 | 1022.9 |
| 20260903051044 | 65 | 81 | 3.0 | 5.0 | 0.00 | 0.00 | 0.00 | 41 | 1023.0 |
| 20260903050543 | 65 | 81 | 3.0 | 5.0 | 0.00 | 0.00 | 0.00 | 42 | 1022.9 |
| 20260903050053 | 66 | 82 | 3.0 | 5.0 | 0.00 | 0.00 | 0.00 | 42 | 1022.9 |
| 20260903045543 | 66 | 82 | 3.0 | 4.0 | 0.00 | 0.00 | 0.00 | 42 | 1022.9 |
| 20260903045044 | 66 | 107 | 1.0 | 3.0 | 0.00 | 0.00 | 0.00 | 42 | 1023.0 |
| 20260903044557 | 66 | 107 | 2.0 | 4.0 | 0.00 | 0.00 | 0.00 | 42 | 1023.0 |
| 20260903044043 | 67 | 107 | 2.0 | 4.0 | 0.00 | 0.00 | 0.00 | 41 | 1023.0 |
| 20260903043543 | 67 | 147 | 2.0 | 4.0 | 0.00 | 0.00 | 0.00 | 42 | 1023.1 |
| 20260903043100 | 67 | 147 | 1.0 | 3.0 | 0.00 | 0.00 | 0.00 | 43 | 1023.1 |
| 20260903042543 | 68 | 147 | 1.0 | 3.0 | 0.00 | 0.00 | 0.00 | 42 | 1023.1 |
| 20260903042043 | 68 | 147 | 1.0 | 3.0 | 0.00 | 0.00 | 0.00 | 43 | 1023.2 |
| 20260903041556 | 69 | 147 | 1.0 | 2.0 | 0.00 | 0.00 | 0.00 | 42 | 1023.2 |
| 20260903041043 | 69 | 0 | 0.0 | 2.0 | 0.00 | 0.00 | 0.00 | 42 | 1023.2 |
| 20260903040546 | 69 | 0 | 0.0 | 3.0 | 0.00 | 0.00 | 0.00 | 42 | 1023.3 |
| 20260903040051 | 69 | 0 | 1.0 | 3.0 | 0.00 | 0.00 | 0.00 | 36 | 1023.3 |
| 20260903035543 | 69 | 147 | 1.0 | 2.0 | 0.00 | 0.00 | 0.00 | 36 | 1023.2 |
| 20260903035043 | 69 | 0 | 0.0 | 2.0 | 0.00 | 0.00 | 0.00 | 37 | 1023.2 |
| 20260903034557 | 70 | 0 | 0.0 | 1.0 | 0.00 | 0.00 | 0.00 | 37 | 1023.1 |
| 20260903034043 | 70 | 0 | 0.0 | 2.0 | 0.00 | 0.00 | 0.00 | 38 | 1023.0 |
| 20260903033546 | 70 | 147 | 0.0 | 2.0 | 0.00 | 0.00 | 0.00 | 38 | 1022.9 |
| 20260903033054 | 70 | 147 | 1.0 | 2.0 | 0.00 | 0.00 | 0.00 | 41 | 1022.9 |
| 20260903032544 | 71 | 147 | 0.0 | 2.0 | 0.00 | 0.00 | 0.00 | 38 | 1022.8 |
| 20260903032045 | 71 | 147 | 0.0 | 2.0 | 0.00 | 0.00 | 0.00 | 37 | 1022.7 |